Location: Newark
(55.7083°N, 13.1992°E)
Time: 23:47:08
(UTC+00:00)

Envisat - Pass Details

Date: 06 October 2022
Orbit: 763 x 765 km, 98.2° (Epoch: 09 December)

Event Time Altitude Azimuth Distance (km) Brightness Sun altitude
Rises 03:42:37 0° 16° (NNE) 3,249 6.6 -14.4°
Reaches altitude 10° 03:44:56 10° 17° (NNE) 2,318 5.9 -14.1°
Maximum altitude 03:50:04 81° 105° (ESE) 783 3.1 -13.4°
Drops below altitude 10° 03:55:09 10° 193° (SSW) 2,301 5.2 -12.7°
Sets 03:57:26 0° 195° (SSW) 3,223 6.0 -12.3°
